Location: Bottenau
(48.5138°N, 8.0462°E)
Time: 16:53:22
(UTC+00:00)

IGS 5A - Pass Details

Date: 18 April 2021
Orbit: 584 x 587 km, 97.6° (Epoch: 02 May)

Event Time Altitude Azimuth Distance (km) Brightness Sun altitude
Exits shadow 19:27:44 14° 132° (SE) 1,652 5.1 -10.5°
Maximum altitude 19:30:52 38° 69° (ENE) 911 4.1 -10.9°
Drops below altitude 10° 19:34:43 10° 2° (N) 1,918 6.5 -11.5°
Sets 19:36:59 0° 354° (N) 2,824 7.5 -11.8°
